GFSSW_sfc_rhum_159.txt.gz
RH
79 79 79 80 80 80 81 81 82 82 82 83 85 86 89 89 88 50 12 17 23 86 72 56 45 37 48 35 26 33 20 26 31 37 44 45 47 49 47 49 51 53 51 51 59
79 79 79 79 78 80 83 83 83 82 82 84 84 86 90 90 59 24 27 62 75 79 40 29 24 25 20 18 20 19 17 14 22 28 39 43 44 51 48 58 66 60 57 58 62
78 78 79 79 79 79 82 83 84 84 83 84 85 86 89 83 22 7 64 66 76 57 22 13 14 12 10 14 16 19 14 12 19 29 34 38 47 44 45 58 60 62 66 66 66
77 77 78 79 79 79 78 79 82 84 83 84 84 86 91 58 10 15 72 75 77 22 13 9 9 10 13 14 11 12 12 13 24 34 34 38 41 50 44 43 48 52 59 64 68
76 77 78 79 79 79 79 79 82 84 83 83 84 85 65 17 11 21 72 74 52 18 9 8 10 13 10 12 9 10 13 14 24 34 33 40 45 47 50 51 50 56 62 62 62
76 78 78 78 79 81 82 83 85 83 82 83 84 89 37 17 11 30 45 46 26 14 9 8 8 10 11 10 8 16 24 28 32 37 39 39 48 46 59 52 57 61 62 60 60
79 80 82 79 78 81 83 84 82 83 84 86 83 68 29 14 13 16 25 16 18 10 9 7 8 11 11 10 12 21 29 31 34 36 42 36 46 43 52 52 59 59 59 60 59
82 82 81 82 82 83 84 84 84 84 86 82 86 62 18 13 16 18 12 12 11 8 7 8 8 8 11 11 15 22 23 24 33 33 42 33 37 52 51 52 57 56 57 58 58
82 82 83 82 83 83 84 87 82 84 82 86 62 43 18 26 18 16 10 9 10 8 7 8 8 9 10 11 21 22 21 24 33 31 39 35 36 51 49 47 52 55 56 54 55
82 82 83 84 83 83 85 83 73 76 74 65 52 35 18 14 15 15 14 8 8 9 7 9 10 10 12 12 19 24 23 24 28 31 33 37 34 50 50 44 46 48 51 52 50
82 83 84 83 83 83 77 30 22 25 36 27 24 20 15 13 14 16 13 7 7 8 8 10 9 9 8 9 13 20 20 23 25 26 30 32 33 44 48 44 43 46 50 49 47
83 84 84 84 83 85 53 22 26 24 20 16 16 22 18 15 14 14 12 14 9 8 11 11 9 8 10 12 15 19 22 24 19 24 28 29 32 31 46 46 42 42 46 46 44
84 84 85 85 85 52 52 29 29 26 24 17 16 14 12 15 14 13 12 12 11 11 10 8 7 10 11 13 15 16 21 22 20 20 26 28 27 34 39 44 43 42 42 42 43
84 84 85 85 45 58 29 33 34 30 23 18 17 15 20 15 16 12 12 10 10 9 11 9 9 10 12 12 11 15 13 13 13 15 14 22 13 34 33 49 47 44 43 42 43
85 84 84 84 66 44 25 36 29 26 20 12 14 14 19 12 14 17 10 10 11 11 10 9 10 11 11 10 10 11 11 12 14 13 22 28 17 20 41 44 42 39 37 36 36
85 85 84 75 72 51 44 38 26 24 29 16 14 16 21 16 14 14 12 10 9 9 10 8 8 8 8 8 9 11 12 15 17 15 16 21 17 16 33 34 31 33 33 34 35
86 84 82 64 37 43 38 19 20 29 19 14 15 16 17 17 14 16 14 16 14 15 14 11 8 7 8 8 10 10 10 17 18 16 16 23 27 19 21 23 24 24 31 32 32
86 88 72 59 64 53 34 17 28 19 20 16 12 15 17 17 14 17 16 18 13 10 12 10 9 8 8 8 10 10 9 16 26 18 15 26 26 16 19 17 18 23 24 27 29
90 62 60 52 61 59 26 21 16 20 16 15 13 14 12 15 15 16 18 16 14 10 10 12 10 10 9 8 8 14 12 8 13 22 14 12 16 13 14 13 15 17 22 26 27
74 71 48 47 56 40 22 24 17 13 14 12 17 14 14 13 16 15 20 16 16 10 9 14 13 10 8 8 10 10 10 11 15 23 21 15 21 12 18 15 16 16 19 23 28
70 42 43 55 45 32 22 19 16 11 14 14 14 16 16 14 15 17 15 13 14 12 9 11 14 15 14 11 8 12 11 16 11 15 16 17 14 20 19 17 16 15 17 20 25
74 32 36 39 45 41 33 30 34 13 10 11 13 12 15 12 13 15 18 14 12 11 13 11 11 14 13 13 11 8 9 11 12 30 21 16 12 11 16 15 17 15 22 27 25
87 80 43 39 40 35 41 37 26 17 13 12 11 11 12 14 16 14 12 10 11 12 15 14 14 17 15 12 13 13 14 13 15 20 24 16 13 14 16 20 20 23 23 32 36
68 54 49 53 54 58 64 50 35 22 19 15 14 13 14 15 15 15 11 9 8 10 52 22 17 20 15 15 12 16 14 14 13 17 16 15 14 15 14 18 18 23 26 31 41
72 60 71 70 60 59 68 61 52 44 35 32 20 16 16 18 17 15 13 11 8 33 19 14 23 21 14 13 13 12 11 12 15 13 17 14 17 15 20 19 19 22 31 34 38
70 63 63 58 63 66 61 58 61 54 53 35 39 43 36 28 19 17 14 15 14 11 12 24 22 24 16 12 12 13 12 12 13 11 15 11 16 15 17 20 23 25 30 35 39
67 76 80 62 57 56 48 64 61 51 45 46 47 43 43 38 39 34 29 26 23 27 22 20 27 31 22 15 14 19 15 13 13 13 12 17 16 13 18 25 25 27 29 31 32

GFSSW_sfc_rhum_162.txt.gz
RH
78 78 79 79 79 80 80 80 81 80 81 83 84 86 88 91 86 37 10 17 28 87 74 28 27 29 27 22 19 16 12 13 17 19 23 23 32 35 32 38 35 38 36 40 43
77 78 78 78 79 80 82 83 83 83 82 83 84 86 89 91 29 13 30 61 84 85 27 25 18 17 12 10 11 11 10 11 14 17 20 22 27 34 34 39 45 40 36 40 43
76 77 77 78 78 79 82 83 83 84 84 83 84 85 88 73 18 6 60 67 83 73 15 12 8 11 8 7 10 10 10 8 15 17 18 21 26 28 31 38 39 44 44 44 44
75 76 76 77 78 78 78 80 82 82 82 83 83 84 87 32 10 12 63 78 81 25 10 9 8 7 7 8 8 9 8 8 15 19 18 22 22 25 26 29 32 37 40 43 45
75 75 76 76 77 77 78 79 83 84 82 83 83 84 48 15 10 14 70 64 37 20 9 6 6 6 7 8 7 8 10 10 18 20 18 23 25 25 28 31 32 37 41 42 41
75 76 76 78 79 82 82 83 84 84 82 83 84 88 27 13 10 16 24 24 18 11 6 5 5 5 6 8 7 12 15 11 18 22 25 22 28 23 34 33 37 41 42 40 40
78 81 81 80 78 82 83 84 82 83 84 84 84 51 17 10 8 10 18 17 14 10 6 4 4 5 5 8 10 16 19 19 21 24 26 21 28 25 31 33 40 41 40 40 40
81 82 82 83 83 83 84 84 83 84 85 83 82 35 12 9 8 10 10 11 11 10 5 4 5 6 7 7 12 15 16 18 23 23 27 22 25 32 28 31 37 37 37 40 40
82 82 83 83 83 83 84 86 82 85 80 82 44 24 11 24 11 7 7 9 7 6 6 5 6 6 6 7 12 15 12 14 24 19 26 22 24 32 26 27 31 34 34 35 37
82 82 83 83 83 83 84 84 74 79 62 42 32 24 12 10 12 8 8 8 8 7 7 7 6 6 6 8 12 11 13 10 16 21 23 23 21 30 28 25 26 28 32 33 32
83 82 83 83 83 81 58 20 25 31 33 15 13 11 10 9 10 11 8 6 7 8 7 7 6 6 6 9 8 9 10 11 12 17 21 19 21 21 30 26 24 25 28 30 30
83 83 83 84 80 82 41 14 18 18 14 8 9 13 12 11 11 12 8 11 10 9 7 7 7 5 6 7 9 10 11 11 15 17 19 16 19 18 24 28 23 22 24 25 25
84 84 84 85 80 44 24 18 16 16 16 8 8 8 8 10 11 10 11 11 11 8 7 6 5 5 6 7 10 10 11 11 12 17 16 18 17 18 17 24 24 22 22 23 24
85 84 84 85 45 23 18 18 14 17 15 11 11 10 8 8 10 8 10 10 10 7 6 5 4 5 7 8 9 12 9 9 12 15 12 16 13 12 13 21 25 24 24 22 23
85 84 84 86 36 21 16 15 13 18 17 9 10 9 10 8 5 8 9 10 8 6 6 6 5 6 7 7 8 11 10 11 12 12 11 13 12 11 18 22 27 23 24 23 22
85 84 85 40 32 25 20 14 16 20 19 10 10 12 13 10 8 8 10 10 8 6 7 4 5 5 5 6 7 8 10 11 11 10 14 12 12 10 13 18 18 21 21 23 23
86 86 76 38 16 23 21 14 15 17 12 10 10 10 10 10 9 12 12 15 13 12 10 6 6 5 5 7 8 9 11 16 17 15 15 11 13 13 9 10 11 14 18 20 21
87 88 54 32 28 29 21 14 22 12 12 11 9 9 11 9 9 10 11 14 12 8 6 7 8 6 6 7 10 10 10 13 24 16 13 15 16 11 9 8 8 11 13 16 18
89 24 25 24 32 34 21 16 15 13 10 10 10 10 11 10 9 10 11 11 11 10 9 7 7 4 5 5 7 10 12 8 11 11 13 11 12 10 9 7 8 8 11 14 16
47 28 20 31 33 31 17 20 12 9 9 10 13 10 11 9 12 10 12 9 10 9 6 8 9 5 5 5 5 8 8 12 11 22 22 13 14 11 11 9 7 8 8 11 14
41 25 31 29 29 27 17 12 9 8 8 11 12 11 10 9 10 10 10 8 8 10 9 5 7 7 6 7 7 8 9 10 9 11 15 17 13 10 11 10 9 8 7 8 10
38 25 25 27 31 18 17 15 28 9 8 8 10 12 12 10 11 10 11 9 8 8 11 8 7 9 8 5 4 5 8 9 12 19 12 11 10 6 8 7 8 9 8 13 13
40 31 19 26 22 18 20 24 18 14 10 8 10 10 10 12 16 10 10 8 9 9 13 10 10 12 10 8 8 8 6 6 8 10 16 14 12 7 8 8 8 11 11 14 22
43 28 23 30 28 34 33 32 24 17 16 11 10 10 11 13 12 14 10 8 8 9 38 20 11 15 10 11 8 11 7 6 7 10 10 10 13 10 10 9 8 8 9 15 23
37 30 40 27 40 40 37 32 31 29 21 24 18 13 13 16 14 14 10 9 8 24 15 12 20 14 12 8 6 7 8 8 11 9 10 9 9 10 11 10 9 8 10 17 23
43 37 36 34 35 35 41 34 38 35 39 24 29 29 27 19 16 15 12 12 12 10 13 11 21 18 16 11 10 10 8 8 8 8 9 8 10 8 9 8 10 11 15 17 23
38 39 49 46 33 32 23 28 40 36 33 34 37 36 30 25 28 25 21 18 17 19 15 17 16 23 20 13 12 14 12 10 10 8 8 11 10 9 9 11 12 13 12 12 14

GFSSW_sfc_rhum_168.txt.gz
RH
75 76 76 77 78 78 79 80 80 80 80 82 84 86 88 89 86 37 19 18 28 83 74 20 25 22 17 18 15 12 15 31 13 16 18 17 21 22 23 26 30 34 43 41 36
75 75 76 76 78 80 82 83 83 84 83 84 85 87 88 89 33 14 18 66 78 80 21 16 17 14 14 13 9 8 11 12 11 12 16 15 19 23 24 27 30 39 38 38 35
74 75 75 75 76 79 81 82 83 84 85 84 83 86 87 75 19 9 72 81 79 64 8 10 11 10 10 8 6 7 9 11 10 10 13 16 19 18 22 27 35 46 45 41 40
75 76 74 74 75 76 79 80 82 85 85 83 83 84 85 32 15 12 68 80 81 18 11 10 11 12 9 9 6 8 7 10 10 10 12 16 17 18 20 23 24 32 39 42 41
78 77 77 78 78 77 77 80 83 84 84 82 83 84 42 18 12 19 70 70 28 16 11 10 10 11 9 7 7 7 8 11 10 10 11 12 15 17 18 21 25 29 33 42 44
80 82 82 82 81 81 82 82 83 84 82 81 85 86 29 13 5 13 11 17 11 12 11 10 9 7 7 6 7 7 8 11 10 12 12 12 13 16 21 22 28 31 32 30 37
83 82 82 82 82 81 82 81 83 83 82 81 86 48 15 11 5 6 7 12 10 9 11 8 7 6 6 7 6 8 9 11 12 13 13 13 16 19 20 23 29 31 30 29 29
84 82 82 82 81 81 81 81 82 80 79 85 80 34 14 6 6 6 6 8 9 8 8 8 5 6 5 5 6 9 9 14 13 13 15 20 24 17 18 23 28 29 29 29 29
83 82 82 82 81 80 81 81 80 77 77 75 49 27 14 16 8 5 5 9 8 8 8 6 4 5 5 7 8 9 14 16 18 12 18 25 36 18 17 22 27 28 29 28 29
83 82 82 82 81 80 80 79 62 69 60 31 23 24 17 9 6 5 5 7 8 9 9 8 6 6 6 8 11 11 14 18 19 14 19 34 48 26 18 20 24 25 28 29 29
84 82 82 82 80 79 63 25 25 34 26 16 11 10 5 7 5 5 5 6 8 8 11 9 7 8 8 8 8 8 18 24 15 12 14 34 33 27 17 17 21 23 25 26 27
85 83 82 82 80 76 55 25 12 10 14 10 15 12 9 5 9 7 5 9 9 8 7 6 7 7 7 7 7 8 10 17 16 14 12 12 23 18 16 16 17 19 21 21 22
85 83 83 84 78 48 12 12 8 8 13 9 7 9 10 6 8 7 6 8 9 8 6 6 6 5 7 8 8 8 9 10 15 12 11 10 15 16 18 15 15 16 17 18 20
84 84 82 83 44 19 16 11 8 8 17 11 8 6 5 6 8 5 5 8 8 9 7 6 4 5 7 8 8 10 7 8 10 13 18 11 14 16 14 19 16 16 16 16 18
84 83 83 82 43 25 13 9 8 10 24 7 6 4 4 6 6 7 5 8 9 8 7 7 5 5 7 7 7 9 6 8 8 11 12 14 14 15 12 18 19 16 16 15 16
84 83 81 34 26 22 12 10 11 18 24 9 6 6 6 5 6 5 6 7 7 8 7 6 4 4 5 6 6 6 7 8 8 8 15 13 13 12 12 13 15 15 15 16 16
84 84 72 39 21 12 11 13 18 20 9 8 9 7 6 6 5 5 8 11 12 14 13 9 6 4 4 5 6 7 8 13 17 15 14 12 12 14 9 9 9 12 15 16 16
85 82 48 23 21 18 14 18 28 13 12 6 6 7 8 6 6 5 7 9 10 10 11 12 10 5 4 5 7 8 8 12 25 18 12 11 15 12 8 8 8 11 12 14 14
85 28 22 14 14 14 18 21 19 15 9 7 7 8 8 7 6 6 6 8 8 9 13 10 9 4 3 3 4 8 10 7 10 12 12 11 11 9 8 8 8 8 12 13 14
53 38 28 15 10 17 23 27 14 10 8 8 11 8 9 8 7 7 7 6 7 7 8 9 10 5 3 4 4 6 7 10 10 23 24 13 16 13 16 12 10 8 7 14 14
47 28 13 10 14 21 26 18 13 10 10 10 10 11 9 8 7 7 7 7 6 6 7 8 9 7 5 6 6 5 7 9 8 11 17 18 13 14 17 13 11 9 8 8 11
33 30 13 14 22 19 20 16 21 10 8 8 9 10 11 10 12 9 8 7 6 6 8 8 8 11 6 4 4 4 6 8 13 23 13 15 12 6 11 9 10 8 9 9 8
41 28 15 14 23 16 13 11 10 11 10 9 9 9 9 11 16 12 10 5 5 6 8 8 11 14 10 5 4 5 5 6 8 11 20 16 14 7 8 8 10 10 11 13 13
44 35 17 15 14 16 15 13 11 8 8 9 12 10 11 12 11 14 12 8 5 5 37 15 9 16 11 10 6 8 5 5 6 12 13 12 14 13 11 10 10 11 12 13 20
41 52 41 43 33 26 24 15 20 22 15 14 17 14 15 16 13 13 11 10 7 23 11 9 18 14 10 7 6 5 5 5 7 8 10 10 11 12 13 13 10 12 18 16 17
55 73 65 42 27 28 30 25 23 22 19 18 18 14 16 18 15 16 19 14 14 11 10 9 21 15 13 9 8 7 6 5 5 5 7 7 9 8 9 8 10 15 15 19 22
80 67 71 48 28 22 23 24 17 14 14 17 20 26 29 25 23 22 20 20 20 23 22 14 16 23 20 11 10 11 8 6 7 6 6 9 10 8 9 12 14 14 14 15 15

GFSSW_sfc_rhum_171.txt.gz
RH
74 74 76 76 77 78 79 79 80 80 80 82 84 86 89 90 86 49 33 22 33 82 79 35 34 31 30 35 25 22 37 26 21 25 27 30 33 33 37 49 44 43 56 56 52
74 74 74 74 76 79 81 82 83 83 82 83 84 86 88 90 54 23 26 47 62 81 32 19 21 22 30 22 18 24 32 20 18 20 24 25 28 28 40 48 52 52 49 50 49
75 74 74 74 74 77 80 81 82 83 85 83 84 85 88 85 43 15 76 51 75 74 15 10 11 14 18 15 12 12 17 13 15 17 19 26 26 24 37 56 54 55 49 45 44
77 75 74 74 74 74 78 79 81 84 83 82 83 84 87 61 20 14 75 79 77 41 16 10 11 16 20 19 12 12 13 12 15 18 18 23 23 22 40 49 44 47 44 43 43
78 77 76 77 77 76 76 78 82 83 82 81 82 87 68 40 19 10 65 76 50 31 16 12 14 15 19 15 10 11 13 12 13 14 19 19 20 27 40 42 42 43 43 45 44
80 82 82 82 81 81 82 82 82 82 81 80 80 88 64 20 8 7 27 38 22 21 15 12 14 12 14 12 10 9 12 13 14 14 14 18 22 28 34 39 44 44 47 45 45
82 82 82 81 81 81 81 81 81 82 79 79 79 65 32 16 8 18 18 20 18 16 15 11 11 13 12 11 8 7 14 14 17 17 15 16 25 32 33 33 42 49 48 46 45
84 83 82 81 81 80 80 81 80 78 79 78 84 62 39 9 8 9 8 12 14 13 11 11 11 12 12 9 7 9 12 25 18 17 18 21 36 30 31 36 40 37 41 49 49
84 84 83 82 80 80 80 79 80 76 76 77 79 69 30 17 14 10 8 8 11 13 12 8 11 12 9 11 12 14 20 20 23 19 22 28 31 28 29 35 40 38 36 37 50
82 82 83 82 79 78 79 76 68 70 68 50 36 41 27 18 9 9 8 7 9 12 12 12 14 13 10 13 16 16 18 26 26 21 26 33 37 24 28 32 36 37 37 36 39
83 82 83 82 80 79 74 52 40 52 42 35 26 23 10 8 10 8 6 7 9 14 19 15 16 14 10 9 9 10 23 23 21 18 30 30 26 28 25 30 34 36 38 38 37
83 83 82 81 80 74 74 48 18 14 17 12 16 18 14 10 12 8 6 9 11 16 16 18 17 10 8 8 9 10 22 25 22 21 30 32 28 25 25 27 30 32 36 36 37
83 83 83 83 76 61 27 22 13 12 20 13 11 11 14 15 16 8 7 8 12 16 14 16 13 9 8 9 10 11 12 26 24 20 17 30 39 32 26 23 26 27 30 31 33
84 84 83 82 49 38 31 14 11 11 28 17 13 10 9 13 14 8 7 8 12 14 12 11 8 7 7 8 10 14 10 9 18 23 32 23 36 38 29 24 24 25 28 28 30
84 84 83 83 67 53 25 20 15 17 40 12 10 7 8 12 11 9 7 8 11 12 12 10 7 7 8 8 8 12 10 11 16 19 22 21 21 30 28 25 23 23 24 24 25
84 84 83 55 42 36 27 19 17 33 36 13 8 8 9 10 10 8 8 7 9 12 10 10 7 6 6 6 7 7 10 11 13 17 25 22 21 24 30 24 21 21 21 22 23
84 83 81 55 46 16 29 28 36 34 14 12 10 9 9 9 8 9 10 11 14 17 17 12 9 6 5 7 7 8 13 22 29 27 28 20 20 23 14 18 21 20 21 20 20
82 84 65 32 36 38 36 33 44 19 16 11 9 9 10 8 7 8 10 12 12 14 18 18 19 9 6 6 10 9 11 20 32 35 26 19 23 22 16 15 19 18 19 20 20
82 46 39 29 21 23 35 36 30 22 12 13 13 12 12 8 8 8 8 10 12 12 18 16 16 9 7 6 6 9 13 12 18 18 22 22 18 18 14 15 18 19 18 20 20
78 60 43 28 22 24 34 42 25 15 15 15 19 16 16 10 8 8 8 8 9 11 11 18 24 11 8 6 5 6 10 14 15 26 30 24 26 21 17 18 17 17 19 20 20
71 42 22 14 20 27 39 34 23 15 13 14 15 15 14 14 11 10 8 7 7 8 10 12 17 15 9 8 7 9 8 13 15 21 27 34 27 20 17 19 17 16 18 20 19
54 54 21 20 33 32 33 27 30 18 14 14 14 14 14 14 18 17 12 8 5 7 10 10 17 18 15 7 5 7 9 12 20 28 28 20 18 15 18 14 18 14 12 19 17
64 50 27 23 39 31 26 19 14 15 14 14 14 12 12 16 25 20 16 11 8 7 9 10 13 18 20 16 7 6 7 9 11 21 23 29 21 14 13 14 12 16 16 19 21
64 54 52 52 50 52 41 28 19 11 10 11 12 12 16 21 20 24 16 10 9 10 30 20 16 15 18 20 15 8 7 8 10 11 18 25 17 17 15 17 16 17 19 20 19
52 51 69 98 87 71 49 40 31 25 20 22 16 15 22 31 27 23 24 27 23 35 22 11 14 18 13 12 11 11 7 6 9 13 17 17 18 17 21 21 18 18 18 17 20
73 91 70 83 79 50 50 43 28 22 23 26 29 19 24 40 42 42 35 40 39 29 33 33 32 24 21 11 10 11 9 6 6 7 11 12 14 13 16 19 16 20 25 23 21
56 69 88 71 49 50 84 50 38 32 26 19 26 34 34 30 28 27 26 27 28 34 36 42 48 36 30 20 18 19 13 12 9 7 7 11 15 12 14 16 19 24 25 24 22